Weather History for Buffalo, WY

Change the Weather History Date:

Tuesday, September 3, 2013

  Actual Average Record
Temperature  
Mean Temperature 75 °F 64 °F  
Max Temperature 89 °F 78 °F 94 °F (2007)
Min Temperature 61 °F 50 °F 41 °F (2006)
Degree Days  
Heating Degree Days 0 4  
Month to date heating degree days 0 11  
Since 1 July heating degree days 1 76  
Cooling Degree Days 10 3  
Month to date cooling degree days 28 10  
Year to date cooling degree days 642 456  
Growing Degree Days 25 (Base 50)    
Moisture  
Dew Point 51 °F    
Average Humidity 49    
Maximum Humidity 72    
Minimum Humidity 26    
Precipitation  
Precipitation 0.00 in 0.04 in 0.72 in (1999)
Month to date precipitation 0.04 0.10  
Year to date precipitation 4.46 10.37  
Sea Level Pressure  
Sea Level Pressure 29.93 in    
Wind  
Wind Speed 7 mph (NW)    
Max Wind Speed 14 mph    
Max Gust Speed 22 mph    
Visibility 10 miles    
Events      
T = Trace of Precipitation, MM = Missing Value Source: NWS Daily Summary

Daily Weather History Graph

Daily Weather History Graph

Search for Another Location

Airport:

Trip Planner

Search our weather history database for the weather conditions in past years. The results will help you decide how hot, cold, wet, or windy it might be!

Date:

Astronomy

Sep. 03, 2013 Rise Set
Actual Time 6:32 AM MDT 7:39 PM MDT
Civil Twilight 6:02 AM MDT 8:08 PM MDT
Nautical Twilight 5:26 AM MDT 8:44 PM MDT
Astronomical Twilight 4:49 AM MDT 9:21 PM MDT
Moon 4:47 AM MDT (9/3) 6:28 PM MDT (9/3)
Length of Visible Light 14h 06m
Length of Day
13h 06m
Waning Crescent, 3% of the Moon is Illuminated
Sep 3
Waning Crescent
Sep 5
New
Sep 12
First Quarter
Sep 19
Full
Sep 26
Last Quarter

Hourly Weather History & Observations

Time (MDT) Temp. Dew Point Humidity Pressure Visibility Wind Dir Wind Speed Gust Speed Precip Events Conditions
12:53 AM 71.1 °F 55.9 °F 59% 29.85 in 10.0 mi SSE 3.5 mph - N/A   Scattered Clouds
1:53 AM 66.9 °F 55.0 °F 66% 29.86 in 10.0 mi WSW 3.5 mph - N/A   Clear
2:53 AM 68.0 °F 55.0 °F 63% 29.84 in 10.0 mi Calm Calm - N/A   Clear
3:53 AM 63.0 °F 54.0 °F 72% 29.86 in 10.0 mi WNW 8.1 mph - N/A   Clear
4:53 AM 63.0 °F 53.1 °F 70% 29.91 in 10.0 mi WNW 8.1 mph - N/A   Clear
5:53 AM 64.0 °F 52.0 °F 65% 29.90 in 10.0 mi NNW 4.6 mph - N/A   Clear
6:53 AM 63.0 °F 51.1 °F 65% 29.93 in 10.0 mi NNW 3.5 mph - N/A   Clear
7:53 AM 69.1 °F 52.0 °F 54% 29.94 in 10.0 mi NW 4.6 mph - N/A   Clear
8:53 AM 73.9 °F 51.1 °F 45% 29.94 in 10.0 mi NW 9.2 mph - N/A   Clear
9:53 AM 78.1 °F 48.9 °F 36% 29.95 in 10.0 mi North 9.2 mph - N/A   Clear
10:53 AM 82.0 °F 48.0 °F 30% 29.96 in 10.0 mi North 11.5 mph - N/A   Scattered Clouds
11:53 AM 82.9 °F 48.9 °F 31% 29.95 in 10.0 mi NW 10.4 mph 16.1 mph N/A   Partly Cloudy
12:53 PM 86.0 °F 48.0 °F 27% 29.93 in 10.0 mi North 11.5 mph 17.3 mph N/A   Partly Cloudy
1:53 PM 86.0 °F 48.0 °F 27% 29.94 in 10.0 mi Variable 4.6 mph - N/A   Clear
2:53 PM 87.1 °F 48.0 °F 26% 29.92 in 10.0 mi North 8.1 mph - N/A   Scattered Clouds
3:53 PM 84.9 °F 48.0 °F 28% 29.94 in 10.0 mi North 8.1 mph - N/A   Partly Cloudy
4:53 PM 84.0 °F 50.0 °F 31% 29.94 in 10.0 mi NNW 8.1 mph - N/A   Partly Cloudy
5:53 PM 84.9 °F 50.0 °F 30% 29.94 in 10.0 mi NNW 8.1 mph - N/A   Clear
6:53 PM 82.0 °F 50.0 °F 33% 29.95 in 10.0 mi NW 8.1 mph - N/A   Clear
7:53 PM 73.9 °F 50.0 °F 43% 29.96 in 10.0 mi West 8.1 mph - N/A   Clear
8:53 PM 72.0 °F 50.0 °F 46% 29.97 in 10.0 mi West 6.9 mph - N/A   Clear
9:53 PM 73.0 °F 50.0 °F 44% 29.96 in 10.0 mi West 9.2 mph - N/A   Clear
10:53 PM 72.0 °F 48.9 °F 44% 29.97 in 10.0 mi WSW 8.1 mph - N/A   Clear
11:53 PM 69.1 °F 50.0 °F 51% 29.97 in 10.0 mi West 9.2 mph - N/A   Clear